Weather History for Wilmington, OH

Change the Weather History Date:

Friday, November 2, 2012

  Actual Average (KDAY) Record (KDAY)
Temperature  
Mean Temperature 42 °F 48 °F  
Max Temperature 50 °F 58 °F 77 °F (1961)
Min Temperature 36 °F 39 °F 20 °F (1954)
Degree Days  
Heating Degree Days 23 17  
Month to date heating degree days 33  
Since 1 July heating degree days 480  
Cooling Degree Days 0 0  
Month to date cooling degree days 0  
Year to date cooling degree days 891  
Moisture  
Dew Point 29 °F    
Average Humidity 58    
Maximum Humidity 70    
Minimum Humidity 44    
Precipitation  
Precipitation 0.00 in 0.11 in 2.20 in (1928)
Month to date precipitation 0.22  
Year to date precipitation 34.76  
Snow  
Snow 0.00 in 0.00 in 6.50 in (1966)
Month to date snowfall 0.0  
Since 1 July snowfall 0.4  
Since 1 September snowfall 0.4  
Snow Depth -    
Sea Level Pressure  
Sea Level Pressure 30.00 in    
Wind  
Wind Speed 7 mph (NNW)    
Max Wind Speed 15 mph    
Max Gust Speed 18 mph    
Visibility 10 miles    
Events      
T = Trace of Precipitation, MM = Missing Value Source: NWS Daily Summary

Daily Weather History Graph

Daily Weather History Graph

Search for Another Location

Airport:

Trip Planner

Search our weather history database for the weather conditions in past years. The results will help you decide how hot, cold, wet, or windy it might be!

Date:

Astronomy

Nov. 02, 2012 Rise Set
Actual Time 8:05 AM EDT 6:32 PM EDT
Civil Twilight 7:37 AM EDT 7:00 PM EDT
Nautical Twilight 7:05 AM EDT 7:31 PM EDT
Astronomical Twilight 6:33 AM EDT 8:03 PM EDT
Moon 9:19 PM EDT (11/2) 11:24 AM EDT (11/2)
Length of Visible Light 11h 23m
Length of Day
10h 27m
Waning Gibbous, 87% of the Moon is Illuminated
Nov 2
Waning Gibbous
Nov 6
Last Quarter
Nov 13
New
Nov 20
First Quarter
Nov 28
Full

Hourly Weather History & Observations

Time (EDT) Temp. Windchill Dew Point Humidity Pressure Visibility Wind Dir Wind Speed Gust Speed Precip Events Conditions
12:54 AM 44.1 °F 40.1 °F 28.0 °F 53% 29.87 in 10.0 mi West 6.9 mph - N/A   Overcast
1:54 AM 44.1 °F 40.8 °F 27.0 °F 51% 29.86 in 10.0 mi West 5.8 mph - N/A   Overcast
2:54 AM 44.1 °F 40.8 °F 27.0 °F 51% 29.86 in 10.0 mi NW 5.8 mph - N/A   Overcast
3:54 AM 42.1 °F 39.2 °F 28.9 °F 60% 29.87 in 10.0 mi North 4.6 mph - N/A   Overcast
4:54 AM 39.9 °F 35.8 °F 28.0 °F 63% 29.88 in 10.0 mi North 5.8 mph - N/A   Overcast
5:54 AM 39.0 °F 34.0 °F 27.0 °F 62% 29.90 in 10.0 mi NNW 6.9 mph - N/A   Mostly Cloudy
6:54 AM 37.9 °F 33.5 °F 27.0 °F 65% 29.92 in 10.0 mi NNW 5.8 mph - N/A   Overcast
7:54 AM 36.0 °F 30.3 °F 26.1 °F 67% 29.94 in 10.0 mi NNW 6.9 mph - N/A   Partly Cloudy
8:54 AM 39.0 °F 35.7 °F 27.0 °F 62% 29.96 in 10.0 mi NW 4.6 mph - N/A   Clear
9:54 AM 43.0 °F 39.5 °F 27.0 °F 53% 29.99 in 10.0 mi NW 5.8 mph - N/A   Clear
10:54 AM 44.1 °F 38.6 °F 28.9 °F 55% 30.01 in 10.0 mi NNW 10.4 mph - N/A   Clear
11:54 AM 46.0 °F 39.9 °F 28.9 °F 51% 30.02 in 10.0 mi NW 13.8 mph - N/A   Clear
12:54 PM 48.0 °F - 30.0 °F 50% 30.02 in 10.0 mi NW 13.8 mph - N/A   Scattered Clouds
1:54 PM 48.0 °F - 30.0 °F 50% 30.02 in 10.0 mi North 15.0 mph 18.4 mph N/A   Partly Cloudy
2:54 PM 48.9 °F - 28.0 °F 44% 30.02 in 10.0 mi WNW 11.5 mph 18.4 mph N/A   Partly Cloudy
3:54 PM 48.9 °F - 28.9 °F 46% 30.03 in 10.0 mi NNW 11.5 mph - N/A   Clear
4:54 PM 48.0 °F - 30.0 °F 50% 30.04 in 10.0 mi NNW 9.2 mph - N/A   Partly Cloudy
5:54 PM 46.0 °F 41.0 °F 30.0 °F 54% 30.06 in 10.0 mi NNW 10.4 mph - N/A   Clear
6:54 PM 42.1 °F 37.1 °F 30.0 °F 62% 30.09 in 10.0 mi NNW 8.1 mph - N/A   Clear
7:54 PM 39.9 °F 34.5 °F 30.0 °F 68% 30.11 in 10.0 mi NNW 8.1 mph - N/A   Clear
8:54 PM 39.0 °F 36.8 °F 30.0 °F 70% 30.11 in 10.0 mi NNW 3.5 mph - N/A   Clear
9:54 PM 37.9 °F 34.4 °F 28.9 °F 70% 30.11 in 10.0 mi NNW 4.6 mph - N/A   Clear
10:54 PM 39.0 °F 36.8 °F 28.9 °F 67% 30.12 in 10.0 mi NW 3.5 mph - N/A   Scattered Clouds
11:54 PM 39.0 °F 36.8 °F 30.0 °F 70% 30.12 in 10.0 mi NNW 3.5 mph - N/A   Overcast